FW5872 Weather Reports


time (UTC)temp
C
wind
direction
speed
KPH
gust
KPH
rain 1hr
cm
rain 24hr
cm
rain mn
cm
humidity
%
barometer
mb
20260507154528 13 0 0.0 0.0 0.00 0.03 0.03 61 1012.4
20260507153032 13 0 0.0 6.4 0.00 0.03 0.03 61 1012.6
20260507151530 12 0 0.0 1.6 0.00 0.03 0.03 65 1012.5
20260507150029 12 0 0.0 1.6 0.00 0.03 0.03 65 1012.9
20260507144541 12 0 0.0 1.6 0.00 0.03 0.03 68 1012.9
20260507143033 11 0 0.0 0.0 0.00 0.03 0.03 69 1013.3
20260507141530 11 0 0.0 0.0 0.00 0.03 0.03 68 1013.4
20260507140034 11 0 0.0 0.0 0.00 0.03 0.03 72 1013.4
20260507134528 11 0 0.0 0.0 0.00 0.05 0.03 74 1013.5
20260507133030 11 0 0.0 0.0 0.00 0.05 0.03 76 1013.8
20260507131531 10 0 0.0 0.0 0.00 0.05 0.03 79 1013.3
20260507130036 10 0 0.0 0.0 0.00 0.05 0.03 83 1013.5
20260507124530 10 0 0.0 0.0 0.00 0.05 0.03 83 1013.6
20260507123039 10 0 0.0 0.0 0.00 0.05 0.03 87 1013.5
20260507121530 10 0 0.0 0.0 0.00 0.05 0.03 86 1013.4
20260507120027 10 0 0.0 0.0 0.00 0.05 0.03 87 1013.3
20260507114530 10 0 0.0 0.0 0.00 0.05 0.03 89 1013.1
20260507113029 10 0 0.0 1.6 0.00 0.05 0.03 92 1012.9
20260507111535 11 0 0.0 0.0 0.00 0.05 0.03 94 1012.9
20260507110032 11 0 0.0 1.6 0.00 0.05 0.03 94 1012.9
20260507104530 11 0 0.0 0.0 0.00 0.05 0.03 94 1012.7
20260507103027 11 0 0.0 0.0 0.00 0.05 0.03 94 1012.4
20260507101529 11 0 0.0 0.0 0.00 0.05 0.03 93 1012.4
20260507100042 11 0 0.0 0.0 0.00 0.05 0.03 94 1012.2
20260507094528 11 0 0.0 0.0 0.00 0.05 0.03 94 1012.2
20260507093040 11 0 0.0 0.0 0.00 0.05 0.03 94 1012.1
20260507091530 11 0 0.0 0.0 0.00 0.05 0.03 93 1012.1
20260507090029 11 0 0.0 0.0 0.00 0.05 0.03 93 1012.2
20260507084530 11 0 0.0 0.0 0.00 0.05 0.03 93 1012.1
20260507083030 11 0 0.0 0.0 0.00 0.05 0.03 93 1011.9
20260507081536 11 0 0.0 0.0 0.00 0.05 0.03 93 1011.7
20260507080027 11 0 0.0 0.0 0.00 0.05 0.03 93 1011.4
20260507074532 11 0 0.0 0.0 0.00 0.05 0.03 93 1011.3
20260507073028 12 0 0.0 1.6 0.00 0.05 0.03 93 1011.2
20260507071529 12 0 0.0 1.6 0.00 0.05 0.03 93 1011.3
20260507070030 12 0 0.0 0.0 0.00 0.05 0.03 93 1011.3
20260507064530 12 0 0.0 0.0 0.00 0.05 0.03 93 1011.4
20260507063030 12 0 0.0 1.6 0.00 0.05 0.03 93 1011.3
20260507061530 13 0 0.0 0.0 0.00 0.05 0.03 93 1011.2
20260507060028 13 0 0.0 0.0 0.00 0.05 0.03 93 1011.3
20260507054530 13 0 0.0 0.0 0.00 0.05 0.03 92 1011.5
20260507053028 13 0 0.0 0.0 0.03 0.05 0.03 92 1011.6
20260507051528 13 0 0.0 0.0 0.03 0.05 0.03 91 1011.2
20260507050038 13 0 0.0 0.0 0.03 0.05 0.03 88 1011.3
20260507044528 14 0 0.0 0.0 0.03 0.05 0.03 83 1011.7
20260507043028 15 0 0.0 1.6 0.00 0.03 0.00 81 1011.3
20260507041542 15 0 0.0 1.6 0.00 0.03 0.00 79 1011.8
20260507040027 15 0 0.0 1.6 0.00 0.03 0.00 79 1011.1
20260507034529 16 0 0.0 0.0 0.00 0.03 0.03 80 1010.8
20260507033034 16 0 0.0 3.2 0.00 0.03 0.03 80 1010.9
20260507031530 16 0 0.0 0.0 0.00 0.03 0.03 80 1010.9
20260507030030 16 0 0.0 0.0 0.00 0.03 0.03 80 1010.6
20260507024528 17 0 0.0 1.6 0.00 0.03 0.03 80 1010.5
20260507023027 17 0 0.0 0.0 0.00 0.03 0.03 80 1010.3
20260507021530 17 343 0.0 1.6 0.00 0.03 0.03 80 1010.4
20260507020030 17 0 0.0 1.6 0.00 0.03 0.03 81 1010.0
20260507014547 17 0 0.0 0.0 0.00 0.03 0.03 82 1010.0
20260507013042 18 0 0.0 1.6 0.00 0.03 0.03 82 1010.4
20260507011536 18 0 0.0 0.0 0.00 0.03 0.03 82 1010.1
20260507010032 18 0 0.0 3.2 0.00 0.03 0.03 85 1010.3
20260507004530 18 0 0.0 0.0 0.00 0.03 0.03 85 1009.9
20260507003028 19 0 0.0 0.0 0.00 0.03 0.03 84 1009.7
20260507001530 19 0 0.0 0.0 0.00 0.03 0.03 83 1009.5
20260507000031 20 0 0.0 0.0 0.00 0.03 0.03 83 1009.3
20260506234530 20 0 0.0 1.6 0.00 0.03 0.03 82 1009.2
20260506233030 20 278 0.0 3.2 0.00 0.03 0.03 82 1008.9
20260506231529 20 0 0.0 3.2 0.00 0.03 0.03 81 1008.8
20260506230030 20 0 0.0 3.2 0.00 0.03 0.03 81 1008.7
20260506224530 20 0 0.0 3.2 0.00 0.03 0.03 81 1008.5
20260506223030 20 285 0.0 4.8 0.00 0.03 0.03 80 1008.5
20260506221530 20 0 0.0 4.8 0.00 0.03 0.03 79 1008.5
20260506220030 20 277 1.6 4.8 0.00 0.03 0.03 80 1008.6
20260506214527 20 0 0.0 9.7 0.00 0.03 0.03 80 1008.6
20260506213028 20 255 1.6 6.4 0.00 0.03 0.03 79 1008.6
20260506211531 21 0 0.0 6.4 0.00 0.03 0.03 78 1008.3
20260506210036 21 281 1.6 11.3 0.00 0.03 0.03 79 1008.2
20260506204530 21 56 1.6 6.4 0.00 0.03 0.03 78 1007.9
20260506203040 20 284 1.6 6.4 0.00 0.03 0.03 78 1008.0
20260506201531 21 266 3.2 8.0 0.00 0.03 0.03 79 1008.2
20260506200029 21 278 1.6 9.7 0.00 0.03 0.03 79 1008.1
20260506194530 20 290 1.6 14.5 0.00 0.03 0.03 78 1008.2
20260506193031 20 292 3.2 9.7 0.00 0.03 0.03 78 1008.1
20260506191532 20 89 3.2 8.0 0.00 0.03 0.03 78 1008.3
20260506190029 20 277 1.6 11.3 0.00 0.03 0.03 81 1008.4
20260506184529 19 295 3.2 12.9 0.00 0.03 0.03 81 1008.7
20260506183029 18 279 4.8 12.9 0.00 0.03 0.03 82 1008.8
20260506181534 18 288 4.8 12.9 0.00 0.03 0.03 82 1008.9
20260506180038 18 8 3.2 12.9 0.00 0.03 0.03 83 1009.0
20260506174529 18 184 3.2 12.9 0.00 0.03 0.03 84 1009.2
20260506173032 18 0 3.2 12.9 0.00 0.03 0.03 86 1009.0
20260506171544 17 330 3.2 12.9 0.00 0.03 0.03 87 1009.0
20260506170027 17 257 3.2 9.7 0.00 0.03 0.03 88 1009.3
20260506164528 17 313 3.2 14.5 0.00 0.03 0.03 89 1009.3
20260506163031 16 203 1.6 11.3 0.00 0.03 0.03 90 1009.4
20260506161541 16 265 1.6 8.0 0.00 0.03 0.03 91 1009.6
20260506160028 16 297 0.0 12.9 0.00 0.03 0.03 93 1009.5